| time (UTC) | temp F | wind direction | speed knots | gust knots | rain 1hr in | rain 24hr in | rain mn in | humidity % | barometer mb |
| 20260502194703 | 59 | 322 | 5.2 | 11.3 | 0.00 | 0.00 | 0.00 | 47 | 1015.8 |
| 20260502194203 | 59 | 265 | 1.7 | 7.0 | 0.00 | 0.00 | 0.00 | 47 | 1015.9 |
| 20260502193703 | 59 | 282 | 1.7 | 7.0 | 0.00 | 0.00 | 0.00 | 49 | 1015.9 |
| 20260502193203 | 58 | 350 | 2.6 | 8.7 | 0.00 | 0.00 | 0.00 | 46 | 1016.0 |
| 20260502191703 | 55 | 319 | 6.1 | 11.3 | 0.00 | 0.00 | 0.00 | 50 | 1016.3 |
| 20260502190703 | 56 | 286 | 6.1 | 11.3 | 0.00 | 0.00 | 0.00 | 50 | 1016.4 |
| 20260502190203 | 56 | 273 | 7.0 | 12.2 | 0.00 | 0.00 | 0.00 | 49 | 1016.5 |
| 20260502184702 | 58 | 314 | 6.1 | 10.4 | 0.00 | 0.00 | 0.00 | 44 | 1016.4 |
| 20260502184203 | 58 | 282 | 3.5 | 10.4 | 0.00 | 0.00 | 0.00 | 48 | 1016.4 |
| 20260502183703 | 57 | 290 | 6.1 | 10.4 | 0.00 | 0.00 | 0.00 | 51 | 1016.5 |
| 20260502183203 | 56 | 312 | 4.3 | 7.8 | 0.00 | 0.00 | 0.00 | 53 | 1016.6 |
| 20260502181703 | 56 | 286 | 6.1 | 12.2 | 0.00 | 0.00 | 0.00 | 48 | 1016.6 |
| 20260502180703 | 56 | 282 | 8.7 | 12.2 | 0.00 | 0.00 | 0.00 | 47 | 1016.8 |
| 20260502180203 | 56 | 314 | 5.2 | 12.2 | 0.00 | 0.00 | 0.00 | 49 | 1016.8 |
| 20260502170203 | 56 | 306 | 8.7 | 15.6 | 0.00 | 0.00 | 0.00 | 45 | 1017.0 |
| 20260502163703 | 55 | 279 | 6.1 | 12.2 | 0.00 | 0.00 | 0.00 | 51 | 1017.2 |
| 20260502163203 | 55 | 311 | 3.5 | 12.2 | 0.00 | 0.00 | 0.00 | 52 | 1017.1 |
| 20260502161703 | 56 | 348 | 3.5 | 10.4 | 0.00 | 0.00 | 0.00 | 47 | 1017.2 |
| 20260502161202 | 56 | 274 | 2.6 | 10.4 | 0.00 | 0.00 | 0.00 | 51 | 1017.3 |
| 20260502160704 | 57 | 287 | 4.3 | 7.0 | 0.00 | 0.00 | 0.00 | 50 | 1017.3 |
| 20260502160202 | 57 | 293 | 2.6 | 7.8 | 0.00 | 0.00 | 0.00 | 53 | 1017.2 |
| 20260502151202 | 56 | 262 | 5.2 | 7.8 | 0.00 | 0.00 | 0.00 | 55 | 1017.5 |
| 20260502150702 | 55 | 224 | 4.3 | 10.4 | 0.00 | 0.00 | 0.00 | 59 | 1017.5 |
| 20260502150203 | 54 | 348 | 2.6 | 10.4 | 0.00 | 0.00 | 0.00 | 60 | 1017.5 |
| 20260502130703 | 46 | 191 | 0.9 | 1.7 | 0.00 | 0.00 | 0.00 | 97 | 1017.9 |
| 20260502130203 | 45 | 31 | 0.0 | 0.0 | 0.00 | 0.00 | 0.00 | 97 | 1017.9 |
| 20260502123702 | 42 | 31 | 0.0 | 0.0 | 0.00 | 0.00 | 0.00 | 98 | 1017.8 |
| 20260502123204 | 42 | 31 | 0.0 | 0.0 | 0.00 | 0.00 | 0.00 | 98 | 1017.7 |
| 20260502121703 | 41 | 31 | 0.0 | 0.0 | 0.00 | 0.00 | 0.00 | 99 | 1017.7 |
| 20260502121203 | 41 | 31 | 0.0 | 0.0 | 0.00 | 0.00 | 0.00 | 99 | 1017.8 |
| 20260502120703 | 41 | 31 | 0.0 | 0.0 | 0.00 | 0.00 | 0.00 | 99 | 1017.7 |
| 20260502120203 | 40 | 31 | 0.0 | 0.0 | 0.00 | 0.00 | 0.00 | 99 | 1017.8 |
| 20260502114703 | 40 | 31 | 0.0 | 0.0 | 0.00 | 0.00 | 0.00 | 99 | 1017.7 |
| 20260502113704 | 39 | 31 | 0.0 | 0.0 | 0.00 | 0.00 | 0.00 | 99 | 1017.6 |
| 20260502113202 | 39 | 31 | 0.0 | 0.0 | 0.00 | 0.00 | 0.00 | 99 | 1017.7 |
| 20260502111703 | 38 | 68 | 0.9 | 4.3 | 0.00 | 0.00 | 0.00 | 98 | 1017.5 |
| 20260502110203 | 39 | 340 | 0.0 | 0.0 | 0.00 | 0.00 | 0.00 | 98 | 1017.3 |
| 20260502104204 | 40 | 340 | 0.0 | 0.9 | 0.00 | 0.00 | 0.00 | 98 | 1017.1 |
| 20260502103203 | 40 | 8 | 0.0 | 0.9 | 0.00 | 0.00 | 0.00 | 98 | 1017.2 |
| 20260502101204 | 40 | 41 | 0.0 | 0.0 | 0.00 | 0.00 | 0.00 | 98 | 1017.5 |
| 20260502100704 | 40 | 41 | 0.0 | 1.7 | 0.00 | 0.00 | 0.00 | 98 | 1017.5 |
| 20260502100203 | 40 | 41 | 0.0 | 1.7 | 0.00 | 0.00 | 0.00 | 98 | 1017.4 |
| 20260502091204 | 40 | 298 | 0.0 | 0.0 | 0.00 | 0.00 | 0.00 | 98 | 1017.6 |
| 20260502090703 | 40 | 298 | 0.0 | 0.0 | 0.00 | 0.00 | 0.00 | 98 | 1017.5 |
| 20260502090203 | 40 | 298 | 0.0 | 0.0 | 0.00 | 0.00 | 0.00 | 98 | 1017.7 |
| 20260502071203 | 39 | 298 | 0.0 | 0.0 | 0.00 | 0.00 | 0.00 | 98 | 1017.2 |
| 20260502070703 | 39 | 298 | 0.0 | 0.0 | 0.00 | 0.00 | 0.00 | 98 | 1017.2 |
| 20260502070203 | 39 | 298 | 0.0 | 0.0 | 0.00 | 0.00 | 0.00 | 98 | 1017.2 |
| 20260502064703 | 39 | 298 | 0.0 | 0.0 | 0.00 | 0.00 | 0.00 | 98 | 1017.3 |
| 20260502064203 | 39 | 298 | 0.0 | 0.0 | 0.00 | 0.00 | 0.00 | 97 | 1017.2 |
| 20260502063703 | 39 | 298 | 0.0 | 0.0 | 0.00 | 0.00 | 0.00 | 98 | 1017.2 |
| 20260502060703 | 39 | 298 | 0.0 | 0.0 | 0.00 | 0.00 | 0.00 | 97 | 1017.8 |
| 20260502060203 | 39 | 298 | 0.0 | 0.0 | 0.00 | 0.00 | 0.00 | 97 | 1017.8 |
| 20260502054703 | 40 | 298 | 0.0 | 0.0 | 0.00 | 0.00 | 0.00 | 96 | 1017.7 |
| 20260502054203 | 40 | 298 | 0.0 | 0.0 | 0.00 | 0.00 | 0.00 | 96 | 1017.9 |
| 20260502053703 | 40 | 298 | 0.0 | 0.0 | 0.00 | 0.00 | 0.00 | 96 | 1017.9 |
| 20260502053203 | 40 | 298 | 0.0 | 0.0 | 0.00 | 0.00 | 0.00 | 96 | 1017.9 |
| 20260502051703 | 41 | 298 | 0.0 | 0.0 | 0.00 | 0.00 | 0.00 | 96 | 1017.9 |
| 20260502050703 | 41 | 298 | 0.0 | 0.0 | 0.00 | 0.00 | 0.00 | 96 | 1017.9 |
| 20260502050203 | 41 | 298 | 0.0 | 0.0 | 0.00 | 0.00 | 0.00 | 96 | 1017.9 |
| 20260502044203 | 42 | 298 | 0.0 | 0.0 | 0.00 | 0.00 | 0.00 | 95 | 1018.0 |
| 20260502043703 | 42 | 298 | 0.0 | 0.0 | 0.00 | 0.00 | 0.00 | 95 | 1018.0 |
| 20260502043203 | 42 | 298 | 0.0 | 0.0 | 0.00 | 0.00 | 0.00 | 94 | 1018.1 |
| 20260502041703 | 43 | 298 | 0.0 | 0.0 | 0.00 | 0.00 | 0.00 | 94 | 1017.9 |
| 20260502041203 | 43 | 298 | 0.0 | 0.0 | 0.00 | 0.00 | 0.00 | 93 | 1017.9 |
| 20260502040703 | 43 | 298 | 0.0 | 0.0 | 0.00 | 0.00 | 0.00 | 93 | 1017.8 |
| 20260502040203 | 43 | 298 | 0.0 | 0.0 | 0.00 | 0.00 | 0.00 | 92 | 1017.9 |
| 20260502034703 | 44 | 298 | 0.0 | 0.0 | 0.00 | 0.00 | 0.00 | 91 | 1017.7 |
| 20260502034203 | 45 | 298 | 0.0 | 0.0 | 0.00 | 0.00 | 0.00 | 91 | 1017.6 |
| 20260502033203 | 45 | 298 | 0.0 | 0.0 | 0.00 | 0.00 | 0.00 | 90 | 1017.6 |
| 20260502031703 | 45 | 298 | 0.0 | 0.0 | 0.00 | 0.00 | 0.00 | 87 | 1017.8 |
| 20260502031203 | 45 | 298 | 0.0 | 0.0 | 0.00 | 0.00 | 0.00 | 87 | 1017.7 |
| 20260502030702 | 46 | 298 | 0.0 | 0.0 | 0.00 | 0.00 | 0.00 | 86 | 1017.8 |
| 20260502030203 | 46 | 298 | 0.0 | 0.0 | 0.00 | 0.00 | 0.00 | 85 | 1017.8 |
| 20260502024703 | 47 | 298 | 0.0 | 0.0 | 0.00 | 0.00 | 0.00 | 82 | 1017.8 |
| 20260502024204 | 47 | 298 | 0.0 | 0.0 | 0.00 | 0.00 | 0.00 | 81 | 1017.8 |
| 20260502023703 | 48 | 298 | 0.0 | 0.0 | 0.00 | 0.00 | 0.00 | 81 | 1017.8 |
| 20260502023204 | 48 | 298 | 0.0 | 0.0 | 0.00 | 0.00 | 0.00 | 80 | 1017.8 |
| 20260502021703 | 49 | 298 | 0.0 | 0.0 | 0.00 | 0.00 | 0.00 | 76 | 1017.4 |
| 20260502021203 | 50 | 298 | 0.0 | 0.0 | 0.00 | 0.00 | 0.00 | 75 | 1017.3 |
| 20260502020703 | 50 | 298 | 0.0 | 0.0 | 0.00 | 0.00 | 0.00 | 75 | 1017.2 |
| 20260502014703 | 51 | 1 | 0.9 | 5.2 | 0.00 | 0.00 | 0.00 | 71 | 1016.9 |
| 20260502014203 | 51 | 314 | 2.6 | 6.1 | 0.00 | 0.00 | 0.00 | 70 | 1016.8 |
| 20260502013202 | 52 | 308 | 4.3 | 8.7 | 0.00 | 0.00 | 0.00 | 70 | 1016.7 |
| 20260502011703 | 53 | 318 | 3.5 | 7.8 | 0.00 | 0.00 | 0.00 | 69 | 1016.5 |
| 20260502010203 | 53 | 306 | 5.2 | 12.2 | 0.00 | 0.00 | 0.00 | 69 | 1016.3 |
| 20260502004703 | 54 | 310 | 4.3 | 8.7 | 0.00 | 0.00 | 0.00 | 69 | 1015.7 |
| 20260502004203 | 54 | 334 | 4.3 | 12.2 | 0.00 | 0.00 | 0.00 | 68 | 1015.5 |
| 20260502003703 | 54 | 8 | 5.2 | 12.2 | 0.00 | 0.00 | 0.00 | 69 | 1015.4 |
| 20260502003203 | 54 | 316 | 5.2 | 11.3 | 0.00 | 0.00 | 0.00 | 69 | 1015.2 |
| 20260502001203 | 55 | 306 | 4.3 | 12.2 | 0.00 | 0.00 | 0.00 | 69 | 1015.1 |
| 20260502000703 | 55 | 317 | 6.1 | 12.2 | 0.00 | 0.00 | 0.00 | 69 | 1015.0 |
| 20260502000204 | 55 | 303 | 5.2 | 11.3 | 0.00 | 0.00 | 0.00 | 68 | 1014.9 |
| 20260501234703 | 56 | 330 | 3.5 | 7.8 | 0.00 | 0.00 | 0.00 | 68 | 1014.4 |
| 20260501234203 | 56 | 309 | 4.3 | 7.8 | 0.00 | 0.00 | 0.00 | 67 | 1014.2 |
| 20260501233703 | 56 | 293 | 4.3 | 7.8 | 0.00 | 0.00 | 0.00 | 67 | 1014.1 |
| 20260501233204 | 56 | 313 | 4.3 | 11.3 | 0.00 | 0.00 | 0.00 | 67 | 1013.9 |
| 20260501231703 | 57 | 299 | 4.3 | 7.0 | 0.00 | 0.00 | 0.00 | 68 | 1013.8 |
| 20260501231203 | 57 | 309 | 4.3 | 7.8 | 0.00 | 0.00 | 0.00 | 68 | 1013.9 |
| 20260501230703 | 57 | 318 | 4.3 | 8.7 | 0.00 | 0.00 | 0.00 | 70 | 1013.9 |
| 20260501223704 | 57 | 321 | 2.6 | 4.3 | 0.00 | 0.00 | 0.00 | 74 | 1013.8 |
| 20260501223203 | 56 | 18 | 0.9 | 2.6 | 0.00 | 0.00 | 0.00 | 75 | 1013.9 |
| 20260501221703 | 56 | 311 | 2.6 | 6.1 | 0.00 | 0.00 | 0.00 | 74 | 1013.7 |
| 20260501221204 | 56 | 313 | 4.3 | 6.1 | 0.00 | 0.00 | 0.00 | 74 | 1013.7 |
| 20260501220704 | 57 | 325 | 1.7 | 7.0 | 0.00 | 0.00 | 0.00 | 73 | 1013.6 |
| 20260501213703 | 58 | 257 | 7.8 | 12.2 | 0.00 | 0.00 | 0.00 | 64 | 1013.6 |
| 20260501213203 | 59 | 261 | 5.2 | 12.2 | 0.00 | 0.00 | 0.00 | 65 | 1013.5 |
| 20260501211703 | 60 | 297 | 6.1 | 13.0 | 0.00 | 0.00 | 0.00 | 64 | 1013.4 |
| 20260501211204 | 60 | 299 | 7.0 | 14.8 | 0.00 | 0.00 | 0.00 | 65 | 1013.4 |
| 20260501210704 | 61 | 278 | 7.8 | 14.8 | 0.00 | 0.00 | 0.00 | 64 | 1013.3 |
| 20260501210203 | 61 | 272 | 7.0 | 12.2 | 0.00 | 0.00 | 0.00 | 63 | 1013.3 |
| 20260501204204 | 60 | 305 | 11.3 | 19.1 | 0.00 | 0.00 | 0.00 | 66 | 1013.2 |
| 20260501203703 | 60 | 297 | 7.8 | 17.4 | 0.00 | 0.00 | 0.00 | 67 | 1013.0 |
| 20260501203203 | 60 | 296 | 7.0 | 12.2 | 0.00 | 0.00 | 0.00 | 67 | 1013.1 |
| 20260501201703 | 60 | 319 | 5.2 | 8.7 | 0.00 | 0.00 | 0.00 | 67 | 1012.8 |
| 20260501201203 | 61 | 307 | 5.2 | 8.7 | 0.00 | 0.00 | 0.00 | 66 | 1012.8 |
| 20260501200704 | 61 | 317 | 4.3 | 8.7 | 0.00 | 0.00 | 0.00 | 65 | 1012.7 |
| 20260501200203 | 61 | 325 | 4.3 | 7.8 | 0.00 | 0.00 | 0.00 | 65 | 1012.6 |